Regional Weather Roundup
Issued by NWS Mobile, AL

Home | Current Version | Previous Version | Text Only | Print | Product List | Glossary On
Versions: 1 2 3 4 5 6 7 8 9 10 11 12 13 14 15 16 17 18 19 20 21 22 23 24 25 26 27 28 29 30 31 32 33 34 35 36 37 38 39 40 41 42 43 44 45 46 47 48 49 50
000
ASUS44 KMOB 202210
RWRMOB
REGIONAL WEATHER ROUNDUP
NATIONAL WEATHER SERVICE MOBILE AL
400 PM CST SAT DEC 20 2014

NOTE: "FAIR" INDICATES FEW OR NO CLOUDS BELOW 12,000 FEET WITH NO
      SIGNIFICANT WEATHER AND/OR OBSTRUCTIONS TO VISIBILITY.

  * THESE STATIONS ARE PART OF THE UNIVERSITY OF SOUTH ALABAMA
    MESONET AND ARE NOT UNDER NWS OR FAA QUALITY CONTROL.

ALZ061>064-202300-
COASTAL ALABAMA

CITY           SKY/WX    TMP DP  RH WIND       PRES   REMARKS
MOBILE REG APT CLOUDY    49  47  93 N9        30.12R
BROOKLEY FIELD CLOUDY    51  48  89 N12       30.12S
USA CAMPUS*      N/A     50  48  93 NE5       30.12R
DOG RIVER*     NOT AVBL


CITY           SKY/WX    TMP DP  RH WIND       PRES   REMARKS
MOUNT VERNON*    N/A     50  46  87 N5        30.13S
SARALAND*      NOT AVBL
BAY MINETTE*   NOT AVBL
LOXLEY*          N/A     50  48  93 N15       30.10S
ROBERTSDALE*     N/A     52  50  93 N3        30.10R
FAIRHOPE*        N/A     50  50 100 N8        30.09S
ELBERTA*         N/A     52  50  93 N7        30.08S
FOLEY*           N/A     55  50  82 CALM      30.08S
GRAND BAY*       N/A     50  48  93 N12       30.09R
DAUPHIN ISLND* NOT AVBL
BON SCOUR NWR* NOT AVBL
GULF SHORES    CLOUDY    52  50  92 NE6       30.08R

$$

ALZ051>060-202300-
INTERIOR SOUTHWEST AND SOUTH CENTRAL ALABAMA

CITY           SKY/WX    TMP DP  RH WIND       PRES   REMARKS
GREENVILLE     CLOUDY    51  47  86 N7        30.13R
EVERGREEN      CLOUDY    51  48  89 N6        30.14R
CASTLEBERRY*   NOT AVBL
ATMORE*          N/A     48  48 100 N13       30.13R
DIXIE*           N/A     52  50  93 NE2       30.09S
ANDALUSIA/OPP  CLOUDY    57  48  72 NE5       30.12R
ANDALUSIA*       N/A     52  48  87 NE6       30.11S
FLORALA APT    CLOUDY    56  50  80 N5        30.12S
FLORALA*         N/A     55  50  82 CALM      30.08S

$$

FLZ001>006-202300-
WESTERN FLORIDA PANHANDLE

CITY           SKY/WX    TMP DP  RH WIND       PRES   REMARKS
PENSACOLA      CLOUDY    51  50  96 N10       30.08R
NAS PENSACOLA  CLOUDY    54  52  93 N12       30.08R
MILTON         NOT AVBL
WHTNG S FIELD  CLOUDY    56  51  84 N10       30.09S


CITY           SKY/WX    TMP DP  RH WIND       PRES   REMARKS
WALNUT HILL*   NOT AVBL
JAY*             N/A     52  48  87 N6        30.12R
DUKE FIELD     DRIZZLE   54  52  94 NE7       30.09S
CRESTVIEW      CLOUDY    55  52  89 NE3       30.11S
VALPARAISO     CLOUDY    54  52  92 N9        30.07S
DESTIN         CLOUDY    54  53  97 NE7       30.07S

$$

MSZ076-079-202300-
INTERIOR SOUTHEAST MISSISSIPPI

CITY           SKY/WX    TMP DP  RH WIND       PRES   REMARKS
LEAKESVILLE*   NOT AVBL
AGRICOLA*      NOT AVBL

$$

MARINE OBSERVATIONS

STATION/POSITION TIME  TEMP    WIND        PRES    WAVE
                       AIR SEA DIR/SP/G            HT/PER
                 (UTC) (F)     (DEG/KT/KT) (MB)    (FT/S)
PASCAGOULA       2200   52      20/ 11/ 14 1018.8R
PETIT BOIS ISLND 2200   52      10/ 15/ 18 1019.1R
GRAND BAY        2100   51      20/  8     1019.0S
KATRINA CUT      2100   51      20/ 18     1019.3R
CEDAR POINT      2100   50      10/ 13     1019.3R
E DAUPHIN ISLAND 2200   52      10/ 19/ 20 1018.8R
MIDDLE BAY LIGHT 2100   51      10/ 20     1018.3S
USCG MOBILE BAY  2200   50 60   20/ 11/ 16 1018.5R
STATE DOCKS      2200   51 60              1019.3R
MEAHER PARK      2100   50     350/  7     1019.6R
WEEKS BAY        2100   53                   N/A
FORT MORGAN      2200   53      40/ 18/ 20 1018.2R
12 S ORANGE BCH  2200   57 69   30/ 16/ 19 1017.4R   4/ 6
PENSACOLA BAY    2200   55 60   30/  7/  9 1018.8S
64 S DAUPHIN ISL 2200   65 74   50/ 19/ 25 1016.6R   7/ 7
67 S FORT MORGAN 2100   64      60/ 19     1016.3R

$$

SELECTED LOCATIONS ACROSS THE REGION

CITY           SKY/WX    TMP DP  RH WIND       PRES   REMARKS
NEW ORLEANS    CLOUDY    52  48  86 N14       30.12R
GULFPORT       CLOUDY    51  47  86 N14       30.11R
PASCAGOULA AP  CLOUDY    52  48  86 N13       30.10R
PASCAGOULA*      N/A     52  48  87 NE5       30.10R
HATTIESBURG    CLOUDY    53  46  77 N7        30.15R
LAUREL         CLOUDY    52  43  71 NE7       30.15R
MERIDIAN       CLEAR     54  41  61 NE7       30.16S
JACKSON        PTCLDY    56  41  57 N7        30.16R
MONTGOMERY     CLOUDY    53  46  77 N6        30.16R
TROY           CLOUDY    52  48  86 NE6       30.14R
KINSTON*       NOT AVBL
GENEVA*          N/A     55  50  82 NE2       30.13R
ASHFORD*         N/A     52  48  87 NE6       30.11S
DOTHAN         CLOUDY    57  50  77 NE6       30.14R
PANAMA CITY    CLOUDY    55  52  89 N9        30.07R

$$



USA.gov is the U.S. government's official web portal to all federal, state and local government web resources and services.